| time (UTC) | temp C | wind direction | speed KPH | gust KPH | rain 1hr cm | rain 24hr cm | rain mn cm | humidity % | barometer mb |
| 20260831163927 | 24 | 123 | 3.2 | 9.7 | 0.00 | 0.00 | 0.00 | 75 | 1016.3 |
| 20260831163422 | 25 | 335 | 1.6 | 4.8 | 0.00 | 0.00 | 0.00 | 74 | 1016.3 |
| 20260831162921 | 24 | 10 | 0.0 | 3.2 | 0.00 | 0.00 | 0.00 | 73 | 1016.3 |
| 20260831162417 | 24 | 338 | 1.6 | 4.8 | 0.00 | 0.00 | 0.00 | 73 | 1016.3 |
| 20260831161915 | 24 | 351 | 0.0 | 1.6 | 0.00 | 0.00 | 0.00 | 73 | 1016.3 |
| 20260831161412 | 25 | 73 | 3.2 | 6.4 | 0.00 | 0.00 | 0.00 | 73 | 1016.3 |
| 20260831160907 | 25 | 82 | 1.6 | 3.2 | 0.00 | 0.00 | 0.00 | 72 | 1016.3 |
| 20260831160402 | 25 | 19 | 1.6 | 3.2 | 0.00 | 0.00 | 0.00 | 71 | 1016.6 |
| 20260831155857 | 25 | 1 | 1.6 | 3.2 | 0.00 | 0.00 | 0.00 | 69 | 1016.3 |
| 20260831155356 | 25 | 325 | 0.0 | 3.2 | 0.00 | 0.00 | 0.00 | 72 | 1016.3 |
| 20260831154852 | 26 | 351 | 0.0 | 3.2 | 0.00 | 0.00 | 0.00 | 69 | 1016.3 |
| 20260831154349 | 25 | 348 | 1.6 | 1.6 | 0.00 | 0.00 | 0.00 | 69 | 1016.3 |
| 20260831153846 | 25 | 306 | 0.0 | 1.6 | 0.00 | 0.00 | 0.00 | 69 | 1016.3 |
| 20260831153343 | 25 | 356 | 1.6 | 3.2 | 0.00 | 0.00 | 0.00 | 72 | 1016.3 |
| 20260831152839 | 25 | 352 | 0.0 | 3.2 | 0.00 | 0.00 | 0.00 | 71 | 1016.3 |
| 20260831152334 | 25 | 346 | 1.6 | 1.6 | 0.00 | 0.00 | 0.00 | 70 | 1016.3 |
| 20260831151829 | 25 | 347 | 0.0 | 0.0 | 0.00 | 0.00 | 0.00 | 71 | 1016.0 |
| 20260831151328 | 24 | 4 | 0.0 | 1.6 | 0.00 | 0.00 | 0.00 | 75 | 1016.3 |
| 20260831150824 | 25 | 330 | 0.0 | 1.6 | 0.00 | 0.00 | 0.00 | 73 | 1016.3 |
| 20260831150319 | 25 | 33 | 1.6 | 1.6 | 0.00 | 0.00 | 0.00 | 72 | 1016.0 |
| 20260831145818 | 25 | 359 | 0.0 | 0.0 | 0.00 | 0.00 | 0.00 | 74 | 1016.0 |
| 20260831145315 | 23 | 350 | 0.0 | 0.0 | 0.00 | 0.00 | 0.00 | 76 | 1016.0 |
| 20260831144810 | 23 | 349 | 0.0 | 1.6 | 0.00 | 0.00 | 0.00 | 77 | 1016.0 |
| 20260831144306 | 23 | 3 | 1.6 | 1.6 | 0.00 | 0.00 | 0.00 | 78 | 1016.0 |
| 20260831143806 | 22 | 3 | 0.0 | 1.6 | 0.00 | 0.00 | 0.00 | 78 | 1016.0 |
| 20260831143301 | 22 | 2 | 1.6 | 1.6 | 0.00 | 0.00 | 0.00 | 79 | 1016.0 |
| 20260831142756 | 21 | 356 | 0.0 | 1.6 | 0.00 | 0.00 | 0.00 | 81 | 1016.0 |
| 20260831142252 | 21 | 351 | 0.0 | 0.0 | 0.00 | 0.00 | 0.00 | 85 | 1016.0 |
| 20260831141751 | 20 | 358 | 0.0 | 0.0 | 0.00 | 0.00 | 0.00 | 88 | 1015.6 |
| 20260831141251 | 20 | 348 | 0.0 | 0.0 | 0.00 | 0.00 | 0.00 | 90 | 1015.6 |
| 20260831140746 | 20 | 347 | 0.0 | 0.0 | 0.00 | 0.00 | 0.00 | 90 | 1015.6 |
| 20260831140241 | 19 | 342 | 0.0 | 0.0 | 0.00 | 0.00 | 0.00 | 90 | 1015.6 |
| 20260831135738 | 18 | 345 | 0.0 | 0.0 | 0.00 | 0.00 | 0.00 | 90 | 1015.3 |
| 20260831135234 | 18 | 346 | 0.0 | 0.0 | 0.00 | 0.00 | 0.00 | 90 | 1015.3 |
| 20260831134729 | 18 | 341 | 0.0 | 0.0 | 0.00 | 0.00 | 0.00 | 90 | 1015.6 |
| 20260831134226 | 18 | 338 | 0.0 | 0.0 | 0.00 | 0.00 | 0.00 | 90 | 1015.3 |
| 20260831133725 | 18 | 330 | 0.0 | 0.0 | 0.00 | 0.00 | 0.00 | 90 | 1014.9 |
| 20260831133219 | 18 | 340 | 0.0 | 0.0 | 0.00 | 0.00 | 0.00 | 90 | 1014.9 |
| 20260831132715 | 18 | 338 | 0.0 | 0.0 | 0.00 | 0.00 | 0.00 | 90 | 1014.9 |
| 20260831132214 | 18 | 341 | 0.0 | 0.0 | 0.00 | 0.00 | 0.00 | 90 | 1014.9 |
| 20260831131709 | 18 | 336 | 0.0 | 0.0 | 0.00 | 0.00 | 0.00 | 90 | 1014.9 |
| 20260831131206 | 18 | 333 | 0.0 | 0.0 | 0.00 | 0.00 | 0.00 | 90 | 1015.3 |
| 20260831130700 | 18 | 341 | 0.0 | 0.0 | 0.00 | 0.00 | 0.00 | 90 | 1014.9 |
| 20260831130156 | 18 | 335 | 0.0 | 0.0 | 0.00 | 0.00 | 0.00 | 90 | 1014.9 |
| 20260831125654 | 18 | 338 | 0.0 | 0.0 | 0.00 | 0.00 | 0.00 | 90 | 1014.9 |
| 20260831125150 | 18 | 341 | 0.0 | 0.0 | 0.00 | 0.00 | 0.00 | 90 | 1014.9 |
| 20260831124645 | 18 | 338 | 0.0 | 0.0 | 0.00 | 0.00 | 0.00 | 90 | 1014.9 |
| 20260831124141 | 18 | 334 | 0.0 | 0.0 | 0.00 | 0.00 | 0.00 | 90 | 1014.9 |
| 20260831123636 | 18 | 341 | 0.0 | 0.0 | 0.00 | 0.00 | 0.00 | 90 | 1014.9 |
| 20260831123134 | 18 | 341 | 0.0 | 0.0 | 0.00 | 0.00 | 0.00 | 90 | 1014.9 |
| 20260831122634 | 18 | 342 | 0.0 | 0.0 | 0.00 | 0.00 | 0.00 | 90 | 1014.9 |
| 20260831122131 | 19 | 344 | 0.0 | 0.0 | 0.00 | 0.00 | 0.00 | 90 | 1014.9 |
| 20260831121630 | 18 | 338 | 0.0 | 0.0 | 0.00 | 0.00 | 0.00 | 90 | 1014.9 |
| 20260831121126 | 18 | 338 | 0.0 | 0.0 | 0.00 | 0.00 | 0.00 | 90 | 1014.9 |
| 20260831120621 | 19 | 338 | 0.0 | 0.0 | 0.00 | 0.00 | 0.00 | 90 | 1014.9 |
| 20260831120116 | 19 | 339 | 0.0 | 0.0 | 0.00 | 0.00 | 0.00 | 90 | 1014.9 |
| 20260831115612 | 19 | 342 | 0.0 | 0.0 | 0.00 | 0.00 | 0.00 | 90 | 1014.9 |
| 20260831115107 | 19 | 340 | 0.0 | 0.0 | 0.00 | 0.00 | 0.00 | 90 | 1014.9 |
| 20260831114606 | 19 | 340 | 0.0 | 0.0 | 0.00 | 0.00 | 0.00 | 90 | 1014.9 |
| 20260831114101 | 19 | 339 | 0.0 | 0.0 | 0.00 | 0.00 | 0.00 | 90 | 1014.9 |
| 20260831113600 | 19 | 340 | 0.0 | 0.0 | 0.00 | 0.00 | 0.00 | 90 | 1014.9 |
| 20260831113056 | 19 | 340 | 0.0 | 0.0 | 0.00 | 0.00 | 0.00 | 89 | 1014.9 |
| 20260831112555 | 19 | 341 | 0.0 | 0.0 | 0.00 | 0.00 | 0.00 | 89 | 1014.9 |
| 20260831112050 | 19 | 340 | 0.0 | 0.0 | 0.00 | 0.00 | 0.00 | 89 | 1014.9 |
| 20260831111547 | 19 | 338 | 0.0 | 0.0 | 0.00 | 0.00 | 0.00 | 89 | 1014.9 |
| 20260831111042 | 19 | 341 | 0.0 | 0.0 | 0.00 | 0.00 | 0.00 | 89 | 1014.9 |
| 20260831110537 | 19 | 339 | 0.0 | 0.0 | 0.00 | 0.00 | 0.00 | 89 | 1014.9 |
| 20260831110032 | 20 | 337 | 0.0 | 0.0 | 0.00 | 0.00 | 0.00 | 89 | 1014.9 |
| 20260831105531 | 19 | 338 | 0.0 | 0.0 | 0.00 | 0.00 | 0.00 | 88 | 1014.6 |
| 20260831105026 | 19 | 341 | 0.0 | 0.0 | 0.00 | 0.00 | 0.00 | 88 | 1014.9 |
| 20260831104523 | 19 | 342 | 0.0 | 0.0 | 0.00 | 0.00 | 0.00 | 88 | 1014.9 |
| 20260831104018 | 19 | 340 | 0.0 | 0.0 | 0.00 | 0.00 | 0.00 | 88 | 1014.9 |
| 20260831103513 | 20 | 349 | 0.0 | 0.0 | 0.00 | 0.00 | 0.00 | 88 | 1014.9 |
| 20260831103009 | 20 | 339 | 0.0 | 0.0 | 0.00 | 0.00 | 0.00 | 87 | 1014.9 |
| 20260831102503 | 20 | 340 | 0.0 | 0.0 | 0.00 | 0.00 | 0.00 | 87 | 1015.3 |
| 20260831101958 | 20 | 342 | 0.0 | 0.0 | 0.00 | 0.00 | 0.00 | 87 | 1014.9 |
| 20260831101453 | 20 | 347 | 0.0 | 0.0 | 0.00 | 0.00 | 0.00 | 87 | 1014.9 |
| 20260831100949 | 20 | 336 | 0.0 | 0.0 | 0.00 | 0.00 | 0.00 | 87 | 1014.9 |
| 20260831100445 | 20 | 343 | 0.0 | 0.0 | 0.00 | 0.00 | 0.00 | 86 | 1014.9 |
| 20260831095940 | 20 | 346 | 0.0 | 0.0 | 0.00 | 0.00 | 0.00 | 86 | 1014.9 |
| 20260831095439 | 20 | 339 | 0.0 | 0.0 | 0.00 | 0.00 | 0.00 | 86 | 1014.9 |
| 20260831094934 | 20 | 339 | 0.0 | 0.0 | 0.00 | 0.00 | 0.00 | 86 | 1014.9 |
| 20260831094430 | 20 | 339 | 0.0 | 0.0 | 0.00 | 0.00 | 0.00 | 86 | 1014.9 |
| 20260831093926 | 20 | 331 | 0.0 | 0.0 | 0.00 | 0.00 | 0.00 | 85 | 1014.9 |
| 20260831093420 | 20 | 343 | 0.0 | 0.0 | 0.00 | 0.00 | 0.00 | 84 | 1014.9 |
| 20260831092917 | 21 | 342 | 0.0 | 0.0 | 0.00 | 0.00 | 0.00 | 84 | 1014.9 |
| 20260831092413 | 21 | 341 | 0.0 | 0.0 | 0.00 | 0.00 | 0.00 | 84 | 1014.9 |
| 20260831091908 | 21 | 338 | 0.0 | 1.6 | 0.00 | 0.00 | 0.00 | 84 | 1014.9 |
| 20260831091403 | 21 | 338 | 0.0 | 1.6 | 0.00 | 0.00 | 0.00 | 83 | 1014.9 |
| 20260831090858 | 21 | 340 | 0.0 | 0.0 | 0.00 | 0.00 | 0.00 | 83 | 1014.9 |
| 20260831090354 | 21 | 306 | 1.6 | 1.6 | 0.00 | 0.00 | 0.00 | 83 | 1014.9 |
| 20260831085850 | 21 | 294 | 0.0 | 0.0 | 0.00 | 0.00 | 0.00 | 82 | 1014.9 |
| 20260831085344 | 21 | 340 | 0.0 | 1.6 | 0.00 | 0.00 | 0.00 | 82 | 1014.9 |
| 20260831084839 | 21 | 323 | 1.6 | 3.2 | 0.00 | 0.00 | 0.00 | 81 | 1014.9 |
| 20260831084335 | 21 | 223 | 1.6 | 1.6 | 0.00 | 0.00 | 0.00 | 81 | 1014.9 |
| 20260831083831 | 21 | 331 | 1.6 | 1.6 | 0.00 | 0.00 | 0.00 | 81 | 1014.9 |
| 20260831083326 | 21 | 322 | 0.0 | 4.8 | 0.00 | 0.00 | 0.00 | 81 | 1014.9 |
| 20260831082825 | 21 | 238 | 3.2 | 3.2 | 0.00 | 0.00 | 0.00 | 81 | 1014.9 |
| 20260831082320 | 21 | 45 | 0.0 | 3.2 | 0.00 | 0.00 | 0.00 | 81 | 1014.9 |
| 20260831081816 | 21 | 346 | 0.0 | 1.6 | 0.00 | 0.00 | 0.00 | 80 | 1014.9 |
| 20260831081311 | 21 | 336 | 0.0 | 3.2 | 0.00 | 0.00 | 0.00 | 80 | 1014.9 |
| 20260831080807 | 21 | 349 | 0.0 | 1.6 | 0.00 | 0.00 | 0.00 | 78 | 1014.9 |
| 20260831080301 | 21 | 14 | 1.6 | 1.6 | 0.00 | 0.00 | 0.00 | 78 | 1014.9 |
| 20260831075757 | 21 | 345 | 0.0 | 1.6 | 0.00 | 0.00 | 0.00 | 78 | 1014.9 |
| 20260831075252 | 21 | 21 | 0.0 | 1.6 | 0.00 | 0.00 | 0.00 | 78 | 1014.9 |
| 20260831074752 | 21 | 7 | 0.0 | 3.2 | 0.00 | 0.00 | 0.00 | 78 | 1014.9 |
| 20260831074246 | 21 | 16 | 1.6 | 3.2 | 0.00 | 0.00 | 0.00 | 78 | 1014.9 |
| 20260831073742 | 20 | 352 | 1.6 | 3.2 | 0.00 | 0.00 | 0.00 | 79 | 1014.6 |
| 20260831073241 | 20 | 2 | 1.6 | 1.6 | 0.00 | 0.00 | 0.00 | 79 | 1014.3 |
| 20260831072736 | 20 | 10 | 1.6 | 1.6 | 0.00 | 0.00 | 0.00 | 80 | 1014.6 |
| 20260831072232 | 20 | 7 | 0.0 | 1.6 | 0.00 | 0.00 | 0.00 | 80 | 1014.6 |
| 20260831071732 | 20 | 359 | 0.0 | 0.0 | 0.00 | 0.00 | 0.00 | 80 | 1014.6 |
| 20260831071227 | 20 | 354 | 0.0 | 0.0 | 0.00 | 0.00 | 0.00 | 80 | 1014.6 |
| 20260831070721 | 20 | 346 | 0.0 | 0.0 | 0.00 | 0.00 | 0.00 | 81 | 1014.3 |
| 20260831070215 | 20 | 350 | 0.0 | 0.0 | 0.00 | 0.00 | 0.00 | 81 | 1014.6 |
| 20260831065714 | 20 | 342 | 0.0 | 0.0 | 0.00 | 0.00 | 0.00 | 81 | 1014.6 |
| 20260831065213 | 20 | 336 | 0.0 | 0.0 | 0.00 | 0.00 | 0.00 | 81 | 1014.6 |
| 20260831064708 | 20 | 347 | 0.0 | 1.6 | 0.00 | 0.00 | 0.00 | 81 | 1014.6 |
| 20260831064203 | 20 | 347 | 0.0 | 0.0 | 0.00 | 0.00 | 0.00 | 81 | 1014.6 |
| 20260831063659 | 20 | 346 | 0.0 | 0.0 | 0.00 | 0.00 | 0.00 | 81 | 1014.9 |
| 20260831063154 | 20 | 342 | 0.0 | 0.0 | 0.00 | 0.00 | 0.00 | 80 | 1014.6 |
| 20260831062649 | 20 | 345 | 0.0 | 0.0 | 0.00 | 0.00 | 0.00 | 80 | 1014.6 |
| 20260831062148 | 20 | 346 | 0.0 | 0.0 | 0.00 | 0.00 | 0.00 | 80 | 1014.3 |
| 20260831061646 | 21 | 343 | 0.0 | 1.6 | 0.00 | 0.00 | 0.00 | 80 | 1014.6 |
| 20260831061142 | 20 | 333 | 0.0 | 0.0 | 0.00 | 0.00 | 0.00 | 80 | 1014.6 |
| 20260831060638 | 21 | 338 | 0.0 | 0.0 | 0.00 | 0.00 | 0.00 | 80 | 1014.6 |
| 20260831060138 | 21 | 332 | 0.0 | 0.0 | 0.00 | 0.00 | 0.00 | 80 | 1014.3 |
| 20260831055637 | 21 | 341 | 0.0 | 1.6 | 0.00 | 0.00 | 0.00 | 80 | 1014.6 |
| 20260831055133 | 21 | 337 | 0.0 | 0.0 | 0.00 | 0.00 | 0.00 | 80 | 1014.6 |
| 20260831054632 | 21 | 336 | 0.0 | 0.0 | 0.00 | 0.00 | 0.00 | 80 | 1014.6 |
| 20260831054132 | 21 | 336 | 0.0 | 0.0 | 0.00 | 0.00 | 0.00 | 81 | 1014.6 |
| 20260831053627 | 21 | 334 | 0.0 | 0.0 | 0.00 | 0.00 | 0.00 | 81 | 1014.6 |
| 20260831053126 | 21 | 323 | 0.0 | 0.0 | 0.00 | 0.00 | 0.00 | 81 | 1014.6 |
| 20260831052625 | 21 | 314 | 0.0 | 1.6 | 0.00 | 0.00 | 0.00 | 81 | 1014.3 |
| 20260831052124 | 21 | 271 | 1.6 | 1.6 | 0.00 | 0.00 | 0.00 | 82 | 1014.3 |
| 20260831051622 | 21 | 314 | 1.6 | 3.2 | 0.00 | 0.00 | 0.00 | 82 | 1014.6 |
| 20260831051115 | 21 | 340 | 0.0 | 0.0 | 0.00 | 0.00 | 0.00 | 82 | 1014.6 |
| 20260831050610 | 21 | 314 | 1.6 | 3.2 | 0.00 | 0.00 | 0.00 | 82 | 1014.6 |
| 20260831050108 | 21 | 341 | 0.0 | 1.6 | 0.00 | 0.00 | 0.00 | 82 | 1014.6 |
| 20260831045603 | 21 | 305 | 0.0 | 1.6 | 0.00 | 0.00 | 0.00 | 82 | 1014.9 |
| 20260831045058 | 21 | 333 | 3.2 | 4.8 | 0.00 | 0.00 | 0.00 | 82 | 1014.6 |
| 20260831044553 | 21 | 266 | 1.6 | 3.2 | 0.00 | 0.00 | 0.00 | 82 | 1014.3 |
| 20260831044048 | 21 | 250 | 1.6 | 3.2 | 0.00 | 0.00 | 0.00 | 81 | 1014.3 |
| 20260831043543 | 21 | 306 | 1.6 | 3.2 | 0.00 | 0.00 | 0.00 | 81 | 1014.6 |
| 20260831043039 | 21 | 301 | 3.2 | 3.2 | 0.00 | 0.00 | 0.00 | 81 | 1014.6 |
| 20260831042538 | 21 | 293 | 1.6 | 4.8 | 0.00 | 0.00 | 0.00 | 81 | 1014.3 |
| 20260831042033 | 21 | 314 | 0.0 | 4.8 | 0.00 | 0.00 | 0.00 | 80 | 1014.3 |
| 20260831041528 | 21 | 323 | 1.6 | 4.8 | 0.00 | 0.00 | 0.00 | 79 | 1014.3 |
| 20260831041027 | 21 | 322 | 3.2 | 4.8 | 0.00 | 0.00 | 0.00 | 79 | 1014.6 |
| 20260831040522 | 21 | 34 | 3.2 | 3.2 | 0.00 | 0.00 | 0.00 | 78 | 1014.3 |
| 20260831040022 | 21 | 308 | 3.2 | 4.8 | 0.00 | 0.00 | 0.00 | 78 | 1014.3 |
| 20260831035519 | 21 | 230 | 4.8 | 6.4 | 0.00 | 0.00 | 0.00 | 78 | 1014.3 |
| 20260831035015 | 21 | 285 | 3.2 | 3.2 | 0.00 | 0.00 | 0.00 | 78 | 1013.9 |
| 20260831034509 | 21 | 347 | 0.0 | 3.2 | 0.00 | 0.00 | 0.00 | 77 | 1013.9 |
| 20260831034005 | 22 | 290 | 3.2 | 6.4 | 0.00 | 0.00 | 0.00 | 77 | 1013.9 |
| 20260831033500 | 22 | 325 | 0.0 | 1.6 | 0.00 | 0.00 | 0.00 | 77 | 1013.9 |
| 20260831032956 | 22 | 164 | 3.2 | 4.8 | 0.00 | 0.00 | 0.00 | 77 | 1013.6 |
| 20260831032455 | 22 | 304 | 1.6 | 3.2 | 0.00 | 0.00 | 0.00 | 77 | 1013.6 |
| 20260831031950 | 22 | 339 | 0.0 | 3.2 | 0.00 | 0.00 | 0.00 | 77 | 1013.6 |
| 20260831031450 | 22 | 314 | 1.6 | 4.8 | 0.00 | 0.00 | 0.00 | 78 | 1013.2 |
| 20260831030949 | 22 | 320 | 1.6 | 3.2 | 0.00 | 0.00 | 0.00 | 78 | 1013.6 |
| 20260831030449 | 22 | 267 | 3.2 | 4.8 | 0.00 | 0.00 | 0.00 | 78 | 1013.2 |
| 20260831025947 | 22 | 240 | 3.2 | 4.8 | 0.00 | 0.00 | 0.00 | 78 | 1013.2 |
| 20260831025446 | 22 | 248 | 3.2 | 6.4 | 0.00 | 0.00 | 0.00 | 78 | 1013.2 |
| 20260831024942 | 22 | 292 | 3.2 | 9.7 | 0.00 | 0.00 | 0.00 | 78 | 1013.6 |
| 20260831024442 | 22 | 253 | 3.2 | 4.8 | 0.00 | 0.00 | 0.00 | 78 | 1013.6 |
| 20260831023937 | 22 | 239 | 4.8 | 6.4 | 0.00 | 0.00 | 0.00 | 77 | 1013.2 |
| 20260831023435 | 22 | 272 | 3.2 | 3.2 | 0.00 | 0.00 | 0.00 | 77 | 1013.2 |
| 20260831022930 | 22 | 324 | 0.0 | 3.2 | 0.00 | 0.00 | 0.00 | 77 | 1013.2 |
| 20260831022429 | 22 | 259 | 3.2 | 3.2 | 0.00 | 0.00 | 0.00 | 77 | 1013.2 |
| 20260831021924 | 22 | 195 | 1.6 | 3.2 | 0.00 | 0.00 | 0.00 | 77 | 1013.2 |
| 20260831021424 | 22 | 343 | 0.0 | 1.6 | 0.00 | 0.00 | 0.00 | 77 | 1013.2 |
| 20260831020920 | 22 | 288 | 1.6 | 3.2 | 0.00 | 0.00 | 0.00 | 77 | 1013.2 |
| 20260831020419 | 23 | 340 | 3.2 | 6.4 | 0.00 | 0.00 | 0.00 | 76 | 1013.2 |
| 20260831015914 | 23 | 303 | 3.2 | 4.8 | 0.00 | 0.00 | 0.00 | 75 | 1013.2 |
| 20260831015410 | 23 | 274 | 3.2 | 3.2 | 0.00 | 0.00 | 0.00 | 75 | 1012.9 |
| 20260831014910 | 23 | 339 | 1.6 | 4.8 | 0.00 | 0.00 | 0.00 | 74 | 1012.9 |
| 20260831014405 | 23 | 222 | 6.4 | 6.4 | 0.00 | 0.00 | 0.00 | 74 | 1012.9 |
| 20260831013901 | 23 | 340 | 1.6 | 3.2 | 0.00 | 0.00 | 0.00 | 75 | 1013.2 |
| 20260831013356 | 23 | 294 | 1.6 | 3.2 | 0.00 | 0.00 | 0.00 | 74 | 1013.2 |
| 20260831012850 | 23 | 338 | 0.0 | 1.6 | 0.00 | 0.00 | 0.00 | 75 | 1013.2 |
| 20260831012345 | 23 | 323 | 1.6 | 4.8 | 0.00 | 0.00 | 0.00 | 75 | 1012.9 |
| 20260831011840 | 23 | 327 | 3.2 | 4.8 | 0.00 | 0.00 | 0.00 | 75 | 1013.2 |
| 20260831011335 | 24 | 233 | 6.4 | 6.4 | 0.00 | 0.00 | 0.00 | 75 | 1012.9 |
| 20260831010831 | 24 | 344 | 1.6 | 3.2 | 0.00 | 0.00 | 0.00 | 75 | 1013.2 |
| 20260831010330 | 23 | 343 | 0.0 | 1.6 | 0.00 | 0.00 | 0.00 | 76 | 1013.2 |
| 20260831005826 | 23 | 314 | 1.6 | 4.8 | 0.00 | 0.00 | 0.00 | 76 | 1013.2 |
| 20260831005321 | 23 | 281 | 4.8 | 9.7 | 0.00 | 0.00 | 0.00 | 76 | 1013.2 |
| 20260831004816 | 24 | 309 | 3.2 | 4.8 | 0.00 | 0.00 | 0.00 | 76 | 1013.2 |
| 20260831004312 | 24 | 236 | 3.2 | 6.4 | 0.00 | 0.00 | 0.00 | 77 | 1013.2 |
| 20260831003808 | 25 | 354 | 6.4 | 11.3 | 0.00 | 0.00 | 0.00 | 75 | 1013.2 |
| 20260831003304 | 25 | 347 | 3.2 | 4.8 | 0.00 | 0.00 | 0.00 | 73 | 1012.9 |
| 20260831002803 | 25 | 333 | 0.0 | 4.8 | 0.00 | 0.00 | 0.00 | 76 | 1013.2 |
| 20260831002305 | 24 | 300 | 3.2 | 9.7 | 0.00 | 0.00 | 0.00 | 77 | 1013.2 |
| 20260831001758 | 25 | 259 | 6.4 | 11.3 | 0.00 | 0.00 | 0.00 | 75 | 1013.2 |
| 20260831001253 | 25 | 228 | 6.4 | 9.7 | 0.00 | 0.00 | 0.00 | 73 | 1013.2 |
| 20260831000751 | 25 | 329 | 3.2 | 4.8 | 0.00 | 0.00 | 0.00 | 73 | 1013.2 |
| 20260831000250 | 25 | 321 | 3.2 | 11.3 | 0.00 | 0.00 | 0.00 | 76 | 1013.2 |
| 20260830235749 | 25 | 105 | 4.8 | 9.7 | 0.00 | 0.00 | 0.00 | 76 | 1013.2 |
| 20260830235244 | 25 | 268 | 6.4 | 6.4 | 0.00 | 0.00 | 0.00 | 75 | 1013.2 |
| 20260830234739 | 25 | 282 | 3.2 | 6.4 | 0.00 | 0.00 | 0.00 | 75 | 1013.2 |
| 20260830234235 | 26 | 282 | 3.2 | 6.4 | 0.00 | 0.00 | 0.00 | 73 | 1013.2 |
| 20260830233731 | 26 | 341 | 0.0 | 3.2 | 0.00 | 0.00 | 0.00 | 73 | 1013.2 |
| 20260830233226 | 26 | 216 | 6.4 | 9.7 | 0.00 | 0.00 | 0.00 | 72 | 1012.9 |
| 20260830232721 | 26 | 246 | 6.4 | 11.3 | 0.00 | 0.00 | 0.00 | 71 | 1013.2 |
| 20260830232217 | 26 | 321 | 1.6 | 6.4 | 0.00 | 0.00 | 0.00 | 72 | 1013.2 |
| 20260830231714 | 27 | 320 | 3.2 | 4.8 | 0.00 | 0.00 | 0.00 | 70 | 1013.2 |
| 20260830231213 | 27 | 306 | 6.4 | 11.3 | 0.00 | 0.00 | 0.00 | 71 | 1013.2 |
| 20260830230708 | 27 | 332 | 3.2 | 12.9 | 0.00 | 0.00 | 0.00 | 71 | 1013.2 |
| 20260830230203 | 27 | 264 | 6.4 | 6.4 | 0.00 | 0.00 | 0.00 | 70 | 1013.2 |
| 20260830225657 | 27 | 245 | 1.6 | 3.2 | 0.00 | 0.00 | 0.00 | 70 | 1013.2 |
| 20260830225152 | 27 | 179 | 4.8 | 11.3 | 0.00 | 0.00 | 0.00 | 70 | 1013.2 |
| 20260830224650 | 27 | 272 | 4.8 | 9.7 | 0.00 | 0.00 | 0.00 | 70 | 1013.2 |
| 20260830224147 | 27 | 342 | 4.8 | 9.7 | 0.00 | 0.00 | 0.00 | 70 | 1013.6 |
| 20260830223643 | 27 | 276 | 3.2 | 12.9 | 0.00 | 0.00 | 0.00 | 71 | 1013.6 |
| 20260830223138 | 27 | 294 | 3.2 | 9.7 | 0.00 | 0.00 | 0.00 | 71 | 1013.9 |
| 20260830222632 | 27 | 12 | 1.6 | 11.3 | 0.00 | 0.00 | 0.00 | 71 | 1013.6 |
| 20260830222129 | 27 | 178 | 3.2 | 11.3 | 0.00 | 0.00 | 0.00 | 70 | 1013.6 |
| 20260830221624 | 28 | 314 | 1.6 | 4.8 | 0.00 | 0.00 | 0.00 | 67 | 1013.9 |
| 20260830221120 | 27 | 181 | 1.6 | 11.3 | 0.00 | 0.00 | 0.00 | 71 | 1013.9 |
| 20260830220615 | 27 | 267 | 4.8 | 12.9 | 0.00 | 0.00 | 0.00 | 71 | 1013.9 |
| 20260830220114 | 27 | 243 | 8.0 | 11.3 | 0.00 | 0.00 | 0.00 | 69 | 1013.9 |
| 20260830215613 | 27 | 256 | 3.2 | 4.8 | 0.00 | 0.00 | 0.00 | 70 | 1013.9 |
| 20260830215108 | 27 | 264 | 3.2 | 6.4 | 0.00 | 0.00 | 0.00 | 69 | 1014.3 |
| 20260830214603 | 28 | 285 | 3.2 | 6.4 | 0.00 | 0.00 | 0.00 | 69 | 1014.3 |
| 20260830214058 | 27 | 317 | 1.6 | 11.3 | 0.00 | 0.00 | 0.00 | 72 | 1014.3 |
| 20260830213557 | 28 | 269 | 4.8 | 12.9 | 0.00 | 0.00 | 0.00 | 69 | 1014.3 |
| 20260830213053 | 27 | 217 | 4.8 | 11.3 | 0.00 | 0.00 | 0.00 | 70 | 1014.3 |
| 20260830212549 | 27 | 276 | 6.4 | 9.7 | 0.00 | 0.00 | 0.00 | 68 | 1014.3 |
| 20260830212048 | 28 | 279 | 3.2 | 14.5 | 0.00 | 0.00 | 0.00 | 69 | 1014.6 |
| 20260830211543 | 27 | 217 | 4.8 | 9.7 | 0.00 | 0.00 | 0.00 | 68 | 1014.6 |
| 20260830211038 | 27 | 249 | 6.4 | 11.3 | 0.00 | 0.00 | 0.00 | 69 | 1014.6 |
| 20260830210533 | 28 | 303 | 4.8 | 9.7 | 0.00 | 0.00 | 0.00 | 68 | 1014.6 |
| 20260830210032 | 28 | 283 | 6.4 | 12.9 | 0.00 | 0.00 | 0.00 | 67 | 1014.6 |
| 20260830205530 | 27 | 258 | 6.4 | 11.3 | 0.00 | 0.00 | 0.00 | 68 | 1014.6 |
| 20260830205026 | 27 | 298 | 4.8 | 9.7 | 0.00 | 0.00 | 0.00 | 67 | 1014.9 |
| 20260830204525 | 27 | 264 | 6.4 | 9.7 | 0.00 | 0.00 | 0.00 | 67 | 1014.6 |
| 20260830204024 | 27 | 242 | 8.0 | 14.5 | 0.00 | 0.00 | 0.00 | 68 | 1014.6 |
| 20260830203521 | 28 | 259 | 3.2 | 11.3 | 0.00 | 0.00 | 0.00 | 67 | 1014.9 |
| 20260830203016 | 27 | 352 | 1.6 | 6.4 | 0.00 | 0.00 | 0.00 | 69 | 1014.9 |
| 20260830202515 | 27 | 198 | 3.2 | 11.3 | 0.00 | 0.00 | 0.00 | 67 | 1014.9 |
| 20260830202012 | 28 | 242 | 6.4 | 9.7 | 0.00 | 0.00 | 0.00 | 67 | 1014.6 |
| 20260830201510 | 28 | 327 | 3.2 | 6.4 | 0.00 | 0.00 | 0.00 | 67 | 1014.6 |
| 20260830201006 | 27 | 209 | 6.4 | 9.7 | 0.00 | 0.00 | 0.00 | 67 | 1014.6 |
| 20260830200506 | 28 | 245 | 6.4 | 9.7 | 0.00 | 0.00 | 0.00 | 66 | 1014.6 |
| 20260830200005 | 27 | 288 | 4.8 | 9.7 | 0.00 | 0.00 | 0.00 | 66 | 1014.6 |
| 20260830195501 | 27 | 254 | 6.4 | 12.9 | 0.00 | 0.00 | 0.00 | 66 | 1014.9 |
| 20260830194959 | 28 | 286 | 4.8 | 11.3 | 0.00 | 0.00 | 0.00 | 65 | 1014.9 |
| 20260830194459 | 28 | 243 | 3.2 | 9.7 | 0.00 | 0.00 | 0.00 | 65 | 1014.6 |
| 20260830193953 | 28 | 189 | 8.0 | 11.3 | 0.00 | 0.00 | 0.00 | 66 | 1014.9 |
| 20260830193453 | 27 | 295 | 6.4 | 9.7 | 0.00 | 0.00 | 0.00 | 67 | 1014.9 |
| 20260830192948 | 27 | 201 | 4.8 | 11.3 | 0.00 | 0.00 | 0.00 | 68 | 1014.9 |
| 20260830192443 | 28 | 245 | 6.4 | 9.7 | 0.00 | 0.00 | 0.00 | 65 | 1014.9 |
| 20260830191938 | 28 | 327 | 0.0 | 11.3 | 0.00 | 0.00 | 0.00 | 65 | 1014.9 |
| 20260830191438 | 28 | 254 | 3.2 | 9.7 | 0.00 | 0.00 | 0.00 | 64 | 1014.9 |
| 20260830190934 | 28 | 236 | 3.2 | 9.7 | 0.00 | 0.00 | 0.00 | 64 | 1015.3 |
| 20260830190429 | 28 | 271 | 1.6 | 11.3 | 0.00 | 0.00 | 0.00 | 64 | 1014.9 |
| 20260830185928 | 28 | 301 | 8.0 | 9.7 | 0.00 | 0.00 | 0.00 | 62 | 1014.9 |
| 20260830185423 | 28 | 308 | 0.0 | 4.8 | 0.00 | 0.00 | 0.00 | 62 | 1014.9 |
| 20260830184919 | 28 | 258 | 8.0 | 11.3 | 0.00 | 0.00 | 0.00 | 62 | 1014.9 |
| 20260830184418 | 28 | 288 | 6.4 | 11.3 | 0.00 | 0.00 | 0.00 | 62 | 1014.9 |
| 20260830183917 | 28 | 246 | 3.2 | 6.4 | 0.00 | 0.00 | 0.00 | 63 | 1014.9 |
| 20260830183412 | 28 | 256 | 4.8 | 6.4 | 0.00 | 0.00 | 0.00 | 62 | 1014.9 |
| 20260830182908 | 28 | 237 | 3.2 | 9.7 | 0.00 | 0.00 | 0.00 | 62 | 1014.9 |
| 20260830182403 | 28 | 274 | 4.8 | 6.4 | 0.00 | 0.00 | 0.00 | 63 | 1014.9 |
| 20260830181859 | 28 | 282 | 4.8 | 4.8 | 0.00 | 0.00 | 0.00 | 62 | 1014.9 |
| 20260830181354 | 28 | 312 | 4.8 | 11.3 | 0.00 | 0.00 | 0.00 | 63 | 1015.3 |
| 20260830180849 | 28 | 303 | 6.4 | 6.4 | 0.00 | 0.00 | 0.00 | 62 | 1014.9 |
| 20260830180343 | 28 | 295 | 1.6 | 6.4 | 0.00 | 0.00 | 0.00 | 63 | 1014.9 |
| 20260830175842 | 28 | 280 | 3.2 | 11.3 | 0.00 | 0.00 | 0.00 | 63 | 1014.9 |
| 20260830175337 | 28 | 190 | 3.2 | 9.7 | 0.00 | 0.00 | 0.00 | 64 | 1015.3 |
| 20260830174832 | 29 | 320 | 4.8 | 9.7 | 0.00 | 0.00 | 0.00 | 62 | 1015.3 |
| 20260830174327 | 30 | 258 | 0.0 | 4.8 | 0.00 | 0.00 | 0.00 | 58 | 1014.9 |
| 20260830173827 | 30 | 343 | 1.6 | 4.8 | 0.00 | 0.00 | 0.00 | 58 | 1014.9 |
| 20260830173322 | 30 | 81 | 3.2 | 3.2 | 0.00 | 0.00 | 0.00 | 56 | 1014.9 |
| 20260830172819 | 29 | 41 | 1.6 | 3.2 | 0.00 | 0.00 | 0.00 | 57 | 1014.9 |
| 20260830172315 | 28 | 308 | 1.6 | 3.2 | 0.00 | 0.00 | 0.00 | 58 | 1014.9 |
| 20260830171811 | 29 | 301 | 1.6 | 3.2 | 0.00 | 0.00 | 0.00 | 56 | 1014.9 |
| 20260830171306 | 29 | 46 | 1.6 | 3.2 | 0.00 | 0.00 | 0.00 | 54 | 1014.9 |
| 20260830170801 | 29 | 46 | 1.6 | 3.2 | 0.00 | 0.00 | 0.00 | 57 | 1014.6 |
| 20260830170300 | 28 | 356 | 0.0 | 3.2 | 0.00 | 0.00 | 0.00 | 59 | 1014.9 |
| 20260830165759 | 28 | 359 | 1.6 | 3.2 | 0.00 | 0.00 | 0.00 | 60 | 1014.6 |
| 20260830165255 | 28 | 33 | 1.6 | 3.2 | 0.00 | 0.00 | 0.00 | 60 | 1014.9 |
| 20260830164751 | 28 | 354 | 0.0 | 3.2 | 0.00 | 0.00 | 0.00 | 59 | 1014.6 |